Marrakech, Morocco

5:10 PM WEST on September 29, 2016 (GMT +0100)
Marrakech

Weather History for 60230 - November, 2012

Change the Weather History Date:

Friday, November 16, 2012

  Actual Average Record
Temperature  
Mean Temperature 60 °F -  
Max Temperature 70 °F - - ()
Min Temperature 49 °F - - ()
Degree Days  
Heating Degree Days 6    
Growing Degree Days 10 (Base 50)    
Moisture  
Dew Point 53 °F    
Average Humidity 68    
Maximum Humidity 100    
Minimum Humidity 43    
Precipitation  
Precipitation 0.00 in - - ()
Sea Level Pressure  
Sea Level Pressure 29.96 in    
Wind  
Wind Speed 2 mph ()    
Max Wind Speed 7 mph    
Max Gust Speed -    
Visibility 5.4 miles    
Events      
T = Trace of Precipitation, MM = Missing Value Source: Averaged Metar Reports

Daily Weather History Graph

Daily Weather History Graph

Search for Another Location

Airport or City:

Trip Planner

Search our weather history database for the weather conditions in past years. The results will help you decide how hot, cold, wet, or windy it might be!

Date:

Astronomy

Nov. 16, 2012 Rise Set
Actual Time 7:01 AM WET 5:32 PM WET
Civil Twilight 6:35 AM WET 5:58 PM WET
Nautical Twilight 6:05 AM WET 6:27 PM WET
Astronomical Twilight 5:36 AM WET 6:56 PM WET
Moon 9:39 AM WET (11/16) 8:19 PM WET (11/16)
Length of Visible Light 11h 22m
Length of Day
10h 31m
Waxing Crescent, 10% of the Moon is Illuminated
Nov 16
Waxing Crescent
Nov 20
First Quarter
Nov 28
Full
Dec 6
Last Quarter
Dec 13
New

Hourly Weather History & Observations

Time (WET) Temp. Dew Point Humidity Pressure Visibility Wind Dir Wind Speed Gust Speed Precip Events Conditions
12:00 AM 59 °F 53 °F 76% 29.99 in 6 mi Calm Calm - -  
12:00 AM 59.0 °F 53.6 °F 82% 30.01 in - Calm Calm - N/A   Clear
3:00 AM 56 °F 55 °F 95% 29.97 in - SSW 6.9 mph - -  
6:00 AM 55 °F 54 °F 95% 29.99 in 6 mi SSE 2.3 mph - -  
8:00 AM 53.6 °F 51.8 °F 94% 30.01 in 6.2 mi East 4.6 mph - N/A   Scattered Clouds
8:30 AM 53.6 °F 53.6 °F 100% 30.01 in 5.0 mi East 4.6 mph - N/A   Scattered Clouds
9:00 AM 59 °F 55 °F 82% 29.99 in 4 mi East 2.3 mph - -   Scattered Clouds
9:00 AM 59.0 °F 55.4 °F 88% 30.01 in 3.7 mi Variable 2.3 mph - N/A   Scattered Clouds
10:00 AM 62.6 °F 55.4 °F 77% 30.01 in 3.7 mi Variable 2.3 mph - N/A   Mostly Cloudy
11:00 AM 66.2 °F 55.4 °F 68% 30.01 in 3.7 mi SE 3.5 mph - N/A   Mostly Cloudy
11:30 AM 68.0 °F 53.6 °F 60% 30.01 in 3.7 mi Variable 2.3 mph - N/A   Mostly Cloudy
11:49 AM 68 °F 54 °F 51% 29.94 in 5 mi NW 4.6 mph - -   Partly Cloudy
12:00 PM 68.0 °F 53.6 °F 60% 29.98 in 5.0 mi Variable 4.6 mph - N/A   Mostly Cloudy
12:30 PM 68.0 °F 53.6 °F 60% 29.98 in 6.2 mi NW 4.6 mph - N/A   Mostly Cloudy
1:00 PM 69.8 °F 53.6 °F 56% 29.95 in 6.2 mi WNW 4.6 mph - N/A   Mostly Cloudy
1:30 PM 68.0 °F 53.6 °F 60% 29.95 in 6.2 mi North 3.5 mph - N/A   Mostly Cloudy
2:00 PM 68.0 °F 53.6 °F 60% 29.95 in 6.2 mi NNW 3.5 mph - N/A   Mostly Cloudy
2:30 PM 69.8 °F 53.6 °F 56% 29.95 in 6.2 mi Variable 1.2 mph - N/A   Mostly Cloudy
3:00 PM 70 °F 52 °F 43% 29.89 in 6 mi WNW 2.3 mph - -   Partly Cloudy
3:00 PM 71.6 °F 53.6 °F 53% 29.95 in 6.2 mi WNW 3.5 mph - N/A   Mostly Cloudy
3:30 PM 69.8 °F 51.8 °F 53% 29.95 in 6.2 mi Calm Calm - N/A   Mostly Cloudy
4:00 PM 69.8 °F 51.8 °F 53% 29.95 in 6.2 mi Calm Calm - N/A   Mostly Cloudy
4:30 PM 68.0 °F 51.8 °F 56% 29.95 in 6.2 mi Variable 2.3 mph - N/A   Mostly Cloudy
5:00 PM 68.0 °F 51.8 °F 56% 29.95 in 6.2 mi East 2.3 mph - N/A   Mostly Cloudy
5:30 PM 66.2 °F 53.6 °F 64% 29.95 in 6.2 mi East 2.3 mph - N/A   Mostly Cloudy
6:00 PM 67 °F 51 °F 47% 29.91 in 6 mi SE 4.6 mph - -   Partly Cloudy
6:00 PM 66.2 °F 51.8 °F 60% 29.95 in 6.2 mi SE 4.6 mph - N/A   Mostly Cloudy
6:30 PM 66.2 °F 51.8 °F 60% 29.95 in 6.2 mi SE 4.6 mph - N/A   Mostly Cloudy
7:00 PM 66.2 °F 53.6 °F 64% 29.95 in 6.2 mi SE 4.6 mph - N/A   Mostly Cloudy
7:30 PM 64.4 °F 53.6 °F 68% 29.95 in 5.6 mi Variable 2.3 mph - N/A   Mostly Cloudy
8:00 PM 64.4 °F 53.6 °F 68% 29.95 in 6.2 mi Variable 2.3 mph - N/A   Mostly Cloudy
8:30 PM 62.6 °F 53.6 °F 72% 29.95 in 3.7 mi WNW 3.5 mph - N/A   Scattered Clouds
8:46 PM 62 °F 54 °F 68% 29.93 in 4 mi West 2.3 mph - -   Scattered Clouds
9:00 PM 62.6 °F 53.6 °F 72% 29.95 in 3.7 mi Variable 2.3 mph - N/A   Mostly Cloudy
9:30 PM 62.6 °F 53.6 °F 72% 29.95 in 3.7 mi WSW 3.5 mph - N/A   Mostly Cloudy
10:00 PM 62.6 °F 53.6 °F 72% 29.95 in 5.0 mi Variable 1.2 mph - N/A   Scattered Clouds
10:30 PM 60.8 °F 53.6 °F 77% 29.95 in 5.0 mi Calm Calm - N/A   Scattered Clouds
11:00 PM 59.0 °F 53.6 °F 82% 29.98 in 5.0 mi NW 1.2 mph - N/A   Scattered Clouds
11:30 PM 59.0 °F 53.6 °F 82% 29.98 in 6.2 mi Calm Calm - N/A   Scattered Clouds